TimePDT,TemperatureF,Dew PointF,Humidity,Sea Level PressureIn,VisibilityMPH,Wind Direction,Wind SpeedMPH,Gust SpeedMPH,PrecipitationIn,Events,Conditions,WindDirDegrees,DateUTC
12:15 AM,37.4,17.6,45,30.24,10.0,North,11.5,-,N/A,,Clear,360,2012-10-05 07:15:00
12:35 AM,37.4,17.6,45,30.24,10.0,North,10.4,-,N/A,,Clear,350,2012-10-05 07:35:00
12:55 AM,35.6,15.8,44,30.25,10.0,Calm,Calm,-,N/A,,Clear,0,2012-10-05 07:55:00
1:15 AM,37.4,15.8,41,30.25,10.0,NNW,4.6,-,N/A,,Clear,340,2012-10-05 08:15:00
1:35 AM,33.8,10.4,38,30.25,10.0,Calm,Calm,-,N/A,,Clear,0,2012-10-05 08:35:00
1:55 AM,33.8,15.8,48,30.25,10.0,North,5.8,-,N/A,,Clear,10,2012-10-05 08:55:00
2:15 AM,33.8,15.8,48,30.25,10.0,North,10.4,-,N/A,,Clear,360,2012-10-05 09:15:00
2:35 AM,33.8,17.6,52,30.26,10.0,NW,4.6,-,N/A,,Clear,320,2012-10-05 09:35:00
2:55 AM,33.8,15.8,48,30.26,10.0,NW,6.9,-,N/A,,Clear,310,2012-10-05 09:55:00
3:15 AM,33.8,17.6,52,30.26,10.0,NNW,10.4,-,N/A,,Clear,340,2012-10-05 10:15:00
3:35 AM,35.6,17.6,48,30.26,10.0,North,11.5,-,N/A,,Clear,350,2012-10-05 10:35:00
3:55 AM,35.6,15.8,44,30.27,10.0,NNW,10.4,-,N/A,,Clear,330,2012-10-05 10:55:00
4:15 AM,33.8,15.8,48,30.27,10.0,NW,3.5,-,N/A,,Clear,320,2012-10-05 11:15:00
4:35 AM,33.8,15.8,48,30.28,10.0,NW,8.1,-,N/A,,Clear,320,2012-10-05 11:35:00
4:55 AM,28.4,12.2,51,30.28,10.0,Calm,Calm,-,N/A,,Clear,0,2012-10-05 11:55:00
5:15 AM,28.4,12.2,51,30.28,10.0,WNW,5.8,-,N/A,,Clear,290,2012-10-05 12:15:00
5:35 AM,30.2,15.8,55,30.28,10.0,WNW,8.1,-,N/A,,Clear,300,2012-10-05 12:35:00
5:55 AM,30.2,15.8,55,30.28,10.0,WNW,4.6,-,N/A,,Clear,300,2012-10-05 12:55:00
6:15 AM,28.4,12.2,51,30.28,10.0,NNW,4.6,-,N/A,,Clear,330,2012-10-05 13:15:00
6:35 AM,28.4,12.2,51,30.28,10.0,NNW,6.9,-,N/A,,Clear,340,2012-10-05 13:35:00
6:55 AM,30.2,15.8,55,30.28,10.0,NNW,4.6,-,N/A,,Clear,330,2012-10-05 13:55:00
7:15 AM,24.8,8.6,50,30.29,3.0,Calm,Calm,-,N/A,,Clear,0,2012-10-05 14:15:00
7:35 AM,26.6,14.0,59,30.30,5.0,Calm,Calm,-,N/A,,Clear,0,2012-10-05 14:35:00
7:55 AM,30.2,15.8,55,30.30,10.0,SW,3.5,-,N/A,,Clear,220,2012-10-05 14:55:00
8:15 AM,33.8,17.6,52,30.30,10.0,Calm,Calm,-,N/A,,Clear,0,2012-10-05 15:15:00
8:35 AM,33.8,17.6,52,30.31,10.0,NW,5.8,-,N/A,,Clear,310,2012-10-05 15:35:00
8:55 AM,35.6,17.6,48,30.31,10.0,NW,5.8,-,N/A,,Clear,320,2012-10-05 15:55:00
9:35 AM,39.2,17.6,42,30.32,10.0,NNW,3.5,-,N/A,,Clear,340,2012-10-05 16:35:00
9:55 AM,42.8,19.4,39,30.32,10.0,NNW,3.5,-,N/A,,Clear,330,2012-10-05 16:55:00
10:15 AM,42.8,19.4,39,30.32,10.0,NNE,3.5,-,N/A,,Clear,30,2012-10-05 17:15:00
10:35 AM,44.6,19.4,37,30.32,10.0,Calm,Calm,-,N/A,,Clear,0,2012-10-05 17:35:00
10:55 AM,44.6,17.6,34,30.32,10.0,North,4.6,-,N/A,,Clear,360,2012-10-05 17:55:00
11:35 AM,46.4,19.4,34,30.32,10.0,North,3.5,-,N/A,,Clear,10,2012-10-05 18:35:00
11:55 AM,48.2,21.2,34,30.31,10.0,North,3.5,-,N/A,,Clear,360,2012-10-05 18:55:00
12:15 PM,50.0,21.2,32,30.31,10.0,NNW,3.5,-,N/A,,Clear,340,2012-10-05 19:15:00
12:35 PM,53.6,23.0,30,30.30,10.0,WSW,4.6,-,N/A,,Clear,250,2012-10-05 19:35:00
12:55 PM,53.6,23.0,30,30.29,10.0,WNW,3.5,-,N/A,,Clear,300,2012-10-05 19:55:00
1:15 PM,55.4,24.8,31,30.28,10.0,NW,5.8,-,N/A,,Clear,310,2012-10-05 20:15:00
1:35 PM,55.4,23.0,29,30.27,10.0,NNE,3.5,-,N/A,,Clear,20,2012-10-05 20:35:00
1:55 PM,55.4,24.8,31,30.26,10.0,NW,3.5,-,N/A,,Clear,320,2012-10-05 20:55:00
2:15 PM,57.2,24.8,29,30.25,10.0,NW,3.5,-,N/A,,Clear,320,2012-10-05 21:15:00
2:35 PM,57.2,24.8,29,30.24,10.0,East,3.5,-,N/A,,Clear,100,2012-10-05 21:35:00
2:55 PM,59.0,23.0,25,30.24,10.0,North,8.1,-,N/A,,Clear,360,2012-10-05 21:55:00
3:15 PM,60.8,21.2,22,30.23,10.0,NNW,5.8,-,N/A,,Clear,330,2012-10-05 22:15:00
3:35 PM,60.8,23.0,23,30.23,10.0,WNW,4.6,-,N/A,,Clear,290,2012-10-05 22:35:00
3:55 PM,62.6,21.2,20,30.23,10.0,NNW,4.6,-,N/A,,Clear,330,2012-10-05 22:55:00
4:15 PM,62.6,19.4,19,30.22,10.0,NW,4.6,-,N/A,,Clear,320,2012-10-05 23:15:00
4:35 PM,62.6,17.6,18,30.21,10.0,North,9.2,-,N/A,,Clear,10,2012-10-05 23:35:00
4:55 PM,60.8,17.6,19,30.21,10.0,North,10.4,-,N/A,,Clear,350,2012-10-05 23:55:00
5:15 PM,60.8,15.8,17,30.21,10.0,NNW,9.2,-,N/A,,Clear,330,2012-10-06 00:15:00
5:35 PM,59.0,19.4,22,30.21,10.0,WNW,10.4,-,N/A,,Clear,300,2012-10-06 00:35:00
5:55 PM,57.2,21.2,25,30.21,10.0,WNW,11.5,-,N/A,,Clear,290,2012-10-06 00:55:00
6:15 PM,55.4,19.4,25,30.21,10.0,WNW,13.8,-,N/A,,Clear,290,2012-10-06 01:15:00
6:35 PM,53.6,19.4,26,30.22,10.0,WNW,12.7,-,N/A,,Clear,300,2012-10-06 01:35:00
6:55 PM,51.8,19.4,28,30.22,10.0,WNW,12.7,-,N/A,,Clear,300,2012-10-06 01:55:00
7:15 PM,50.0,19.4,30,30.23,10.0,NW,8.1,-,N/A,,Clear,320,2012-10-06 02:15:00
7:35 PM,50.0,19.4,30,30.23,10.0,NNW,9.2,-,N/A,,Clear,330,2012-10-06 02:35:00
7:55 PM,51.8,19.4,28,30.23,10.0,NW,12.7,-,N/A,,Clear,310,2012-10-06 02:55:00
8:35 PM,50.0,19.4,30,30.24,10.0,NW,11.5,-,N/A,,Clear,310,2012-10-06 03:35:00
8:55 PM,48.2,19.4,32,30.24,10.0,NW,13.8,-,N/A,,Clear,310,2012-10-06 03:55:00
9:15 PM,48.2,19.4,32,30.24,10.0,NNW,11.5,-,N/A,,Clear,330,2012-10-06 04:15:00
9:35 PM,46.4,19.4,34,30.24,10.0,NW,12.7,-,N/A,,Clear,320,2012-10-06 04:35:00
9:55 PM,46.4,19.4,34,30.25,10.0,NW,9.2,-,N/A,,Clear,320,2012-10-06 04:55:00
10:15 PM,42.8,17.6,36,30.25,10.0,NNW,6.9,-,N/A,,Clear,330,2012-10-06 05:15:00
10:35 PM,44.6,19.4,37,30.26,10.0,NNW,9.2,-,N/A,,Clear,330,2012-10-06 05:35:00
10:55 PM,44.6,19.4,37,30.26,10.0,NW,8.1,-,N/A,,Clear,320,2012-10-06 05:55:00
11:15 PM,39.2,17.6,42,30.26,10.0,NNE,5.8,-,N/A,,Clear,30,2012-10-06 06:15:00
11:35 PM,39.2,17.6,42,30.26,10.0,Calm,Calm,-,N/A,,Clear,0,2012-10-06 06:35:00
11:55 PM,39.2,19.4,45,30.26,10.0,NNW,4.6,-,N/A,,Clear,340,2012-10-06 06:55:00